1518670800.29,27522,8.0,72740.0,-14.67,-19.99,-20.05,0,*6B
1518670801.53,27523,8.0,72740.8,-14.63,-19.99,-20.05,0,*6E
1518670802.76,27524,8.0,72742.8,-14.63,-19.99,-20.05,0,*69
1518670804.0,27525,8.06,72746.8,-14.67,-19.99,-20.05,0,*6C
1518670805.24,27526,8.06,72746.0,-14.63,-19.91,-20.05,0,*63
1518670806.48,27527,8.0,72742.3,-14.63,-20.05,-20.15,0,*64
1518670807.73,27528,8.0,72740.0,-14.67,-20.05,-20.15,0,*6F
1518670808.98,27529,8.0,72744.0,-14.63,-20.05,-20.15,0,*6A
1518670810.22,27530,8.0,72742.0,-14.67,-19.99,-20.05,0,*68
1518670811.46,27531,8.06,72746.5,-14.63,-19.99,-20.05,0,*6D
1518670812.72,27532,8.0,72740.3,-14.67,-19.99,-20.19,0,*67
1518670813.98,27533,8.06,72746.8,-14.67,-19.99,-20.15,0,*6A
1518670815.23,27534,8.0,72742.3,-14.67,-20.05,-20.35,0,*60
1518670816.49,27535,8.06,72744.8,-14.67,-20.19,-20.29,0,*61
1518670817.77,27536,8.06,72746.3,-14.63,-20.15,-20.35,0,*67
1518670819.05,27537,8.0,72742.8,-14.63,-20.19,-20.35,0,*6A
1518670820.3,27538,8.0,72740.8,-14.63,-20.05,-20.19,0,*66
1518670821.53,27539,8.0,72744.8,-14.67,-19.91,-20.05,0,*69
1518670822.79,27540,8.0,72740.0,-14.67,-19.85,-19.91,0,*65
1518670824.05,27541,8.0,72740.0,-14.63,-19.85,-19.91,0,*60
1518670825.28,27542,8.0,72742.0,-14.67,-19.75,-19.91,0,*68
1518670826.54,27543,8.06,72744.0,-14.63,-19.85,-20.05,0,*65
1518670827.78,27544,8.0,72742.0,-14.67,-19.99,-20.05,0,*6B
1518670829.01,27545,8.0,72742.8,-14.67,-20.29,-20.39,0,*64
1518670830.24,27546,8.0,72742.3,-14.63,-20.05,-20.29,0,*6C
1518670831.47,27547,8.06,72746.5,-14.67,-20.05,-20.05,0,*67
1518670832.73,27548,8.0,72746.3,-14.67,-19.91,-20.15,0,*6E
1518670833.98,27549,8.0,72742.8,-14.67,-19.99,-20.15,0,*67
1518670835.24,27550,8.0,72744.5,-14.67,-19.99,-20.15,0,*6F
1518670836.5,27551,8.0,72740.3,-14.67,-20.05,-20.19,0,*6D
1518670837.76,27552,8.0,72744.0,-14.63,-19.99,-20.15,0,*69
1518670839.01,27553,8.06,72744.5,-14.63,-19.99,-20.15,0,*68
1518670840.25,27554,8.0,72742.0,-14.67,-19.91,-20.05,0,*62
1518670841.48,27555,8.0,72740.0,-14.67,-19.91,-19.91,0,*64
1518670842.74,27556,8.06,72744.8,-14.67,-19.85,-19.91,0,*62
1518670843.97,27557,8.06,72746.8,-14.63,-19.91,-20.05,0,*65
1518670845.21,27558,8.0,72744.8,-14.63,-19.99,-20.05,0,*62
1518670846.45,27559,8.06,72746.3,-14.67,-19.99,-20.29,0,*69
1518670847.7,27560,8.0,72742.5,-14.63,-20.05,-20.15,0,*67
1518670848.97,27561,8.0,72740.8,-14.63,-20.15,-20.19,0,*6B
1518670850.23,27562,8.0,72740.8,-14.67,-20.29,-20.35,0,*6D
1518670851.47,27563,8.0,72742.8,-14.63,-20.05,-20.15,0,*64
1518670852.71,27564,8.0,72738.8,-14.63,-19.91,-19.99,0,*6A
1518670853.94,27565,8.06,72744.3,-14.67,-19.99,-20.05,0,*68
1518670855.2,27566,8.0,72740.3,-14.67,-19.85,-19.99,0,*69
1518670856.46,27567,8.0,72740.8,-14.63,-19.85,-19.99,0,*6C
1518670857.71,27568,8.06,72742.8,-14.67,-19.85,-19.91,0,*6F
1518670858.95,27569,8.0,72740.3,-14.63,-19.75,-19.91,0,*65
1518670860.21,27570,8.0,72744.3,-14.67,-19.85,-19.91,0,*66
1518670861.44,27571,8.0,72742.5,-14.63,-19.75,-19.99,0,*64
1518670862.71,27572,8.06,72746.8,-14.63,-19.85,-19.85,0,*65
1518670863.95,27573,8.0,72740.8,-14.63,-19.75,-19.91,0,*6E
1518670865.21,27574,8.0,72742.0,-14.63,-19.61,-19.91,0,*6C
1518670866.46,27575,8.0,72740.0,-14.63,-19.85,-19.99,0,*6F
1518670867.72,27576,8.0,72740.8,-14.67,-19.85,-20.05,0,*67
1518670868.96,27577,8.0,72742.5,-14.63,-19.91,-20.05,0,*67
1518670870.19,27578,8.0,72740.3,-14.63,-19.99,-20.05,0,*60
1518670871.43,27579,8.0,72742.0,-14.63,-19.99,-20.05,0,*61
1518670872.66,27580,8.0,72742.0,-14.63,-19.91,-19.99,0,*60
1518670873.89,27581,8.0,72744.0,-14.63,-19.91,-19.99,0,*61
1518670875.15,27582,8.06,72746.3,-14.63,-19.85,-19.91,0,*6F
1518670876.41,27583,8.06,72744.8,-14.63,-19.61,-19.75,0,*6E
1518670877.67,27584,8.0,72742.8,-14.63,-19.57,-19.71,0,*68
1518670878.93,27585,8.06,72746.8,-14.63,-19.61,-19.75,0,*68
1518670880.19,27586,8.06,72742.8,-14.63,-19.71,-19.85,0,*65
1518670881.41,27587,8.06,72744.5,-14.61,-19.71,-19.99,0,*6B
1518670882.64,27588,8.06,72746.8,-14.61,-19.85,-19.99,0,*6F
1518670883.85,27589,8.0,72742.5,-14.61,-19.71,-19.95,0,*69
1518670885.07,27590,8.0,72740.3,-14.61,-19.71,-19.95,0,*61
1518670886.3,27591,8.0,72740.3,-14.61,-19.81,-19.99,0,*63
1518670887.51,27592,8.06,72746.0,-14.61,-19.71,-19.99,0,*6F
1518670888.76,27593,8.0,72744.0,-14.61,-19.81,-19.85,0,*6C
1518670890.01,27594,8.0,72744.8,-14.59,-19.71,-19.95,0,*6E
1518670891.26,27595,8.0,72740.0,-14.61,-19.81,-19.81,0,*6E
1518670892.56,27596,8.0,72742.8,-14.59,-19.65,-19.81,0,*6C
1518670893.85,27597,8.0,72740.5,-14.59,-19.57,-19.81,0,*6C
1518670895.13,27598,8.0,72746.5,-14.59,-19.65,-19.71,0,*6D
1518670896.36,27599,8.06,72746.0,-14.61,-19.71,-19.85,0,*69
1518670897.63,27600,8.0,72740.0,-14.59,-19.81,-19.95,0,*6F
1518670898.84,27601,8.0,72742.5,-14.61,-19.95,-19.99,0,*6C
1518670900.08,27602,8.0,72742.8,-14.61,-19.85,-19.95,0,*62
1518670901.29,27603,8.0,72742.8,-14.61,-19.99,-19.95,0,*6E
1518670902.56,27604,8.0,72740.5,-14.59,-19.99,-20.15,0,*60
1518670903.83,27605,8.0,72740.3,-14.59,-19.99,-20.15,0,*61
1518670905.09,27606,8.06,72744.0,-14.59,-19.85,-19.99,0,*61
1518670906.34,27607,8.0,72742.5,-14.59,-19.95,-19.99,0,*61
1518670907.56,27608,8.0,72744.0,-14.61,-19.95,-20.09,0,*66
1518670908.79,27609,8.0,72742.8,-14.61,-19.85,-19.99,0,*65
1518670910.02,27610,8.0,72742.3,-14.61,-19.71,-19.85,0,*6B
1518670911.29,27611,8.06,72744.5,-14.59,-19.81,-19.95,0,*6F
1518670912.54,27612,8.0,72742.8,-14.59,-19.95,-19.99,0,*65
1518670913.75,27613,8.0,72742.5,-14.61,-19.95,-20.09,0,*6C
1518670914.96,27614,8.0,72744.0,-14.61,-19.95,-20.09,0,*6B
1518670916.18,27615,8.0,72744.0,-14.61,-19.95,-20.09,0,*6A
1518670917.39,27616,8.0,72746.5,-14.61,-19.95,-19.99,0,*6A
1518670918.6,27617,8.0,72740.0,-14.61,-19.95,-19.99,0,*6B
1518670919.83,27618,8.06,72744.0,-14.61,-19.81,-19.95,0,*6D
1518670921.12,27619,8.0,72742.0,-14.59,-19.85,-19.85,0,*62
1518670922.35,27620,8.0,72744.3,-14.61,-19.81,-19.95,0,*66
1518670923.62,27621,8.0,72740.0,-14.59,-19.81,-19.95,0,*6C
1518670924.88,27622,8.0,72744.3,-14.59,-19.81,-19.99,0,*63
1518670926.14,27623,8.06,72744.8,-14.59,-19.81,-19.95,0,*6E
1518670927.37,27624,8.0,72740.0,-14.61,-19.81,-19.95,0,*62
1518670928.62,27625,8.06,72744.3,-14.61,-19.81,-19.85,0,*62
1518670929.87,27626,8.0,72744.0,-14.57,-19.51,-19.81,0,*6D
1518670931.14,27627,8.06,72744.5,-14.59,-19.71,-19.81,0,*60
1518670932.41,27628,8.0,72742.0,-14.59,-19.65,-19.71,0,*65
1518670933.65,27629,8.06,72744.3,-14.61,-19.65,-19.95,0,*65
1518670934.9,27630,8.06,72746.8,-14.57,-19.71,-19.85,0,*6C
1518670936.19,27631,8.0,72742.5,-14.59,-19.81,-19.85,0,*6C
1518670937.49,27632,8.0,72746.8,-14.59,-19.57,-19.65,0,*6A
1518670938.74,27633,8.06,72746.5,-14.57,-19.57,-19.71,0,*60
1518670939.95,27634,8.0,72742.8,-14.61,-19.51,-19.71,0,*64
1518670941.25,27635,8.06,72746.5,-14.59,-19.65,-19.81,0,*66
1518670942.5,27636,8.0,72740.3,-14.57,-19.71,-19.81,0,*6E
1518670943.77,27637,8.06,72746.3,-14.57,-19.65,-19.81,0,*6A
1518670945.05,27638,8.06,72744.0,-14.57,-19.57,-19.81,0,*64
1518670946.3,27639,8.0,72742.8,-14.57,-19.71,-19.81,0,*61
1518670947.55,27640,8.0,72744.8,-14.57,-19.71,-19.81,0,*6F
1518670948.81,27641,8.06,72744.8,-14.57,-19.81,-19.85,0,*65
1518670950.08,27642,8.0,72742.0,-14.55,-19.65,-19.75,0,*61
1518670951.31,27643,8.0,72744.8,-14.57,-19.95,-19.99,0,*6F
1518670952.58,27644,8.06,72746.8,-14.59,-19.85,-20.09,0,*64
1518670953.81,27645,8.0,72742.3,-14.57,-19.71,-19.95,0,*6F
1518670955.05,27646,8.0,72744.5,-14.57,-19.81,-19.95,0,*63
1518670956.27,27647,8.0,72746.8,-14.57,-19.99,-19.99,0,*67
1518670957.49,27648,8.06,72744.3,-14.57,-20.09,-20.09,0,*68
1518670958.71,27649,8.0,72744.5,-14.57,-19.99,-20.09,0,*6A
1518670959.97,27650,8.06,72744.0,-14.59,-19.71,-19.95,0,*65
1518670961.25,27651,8.06,72748.0,-14.57,-19.57,-19.65,0,*61
1518670962.53,27652,8.0,72744.8,-14.57,-19.61,-19.65,0,*67
1518670963.8,27653,8.0,72744.8,-14.57,-19.65,-19.81,0,*68
1518670965.07,27654,8.06,72746.5,-14.57,-19.65,-19.81,0,*6F
1518670966.32,27655,8.0,72744.8,-14.55,-19.51,-19.75,0,*60
1518670967.57,27656,8.06,72746.0,-14.57,-19.71,-19.85,0,*6C
1518670968.84,27657,8.06,72746.5,-14.57,-19.81,-19.85,0,*62
1518670970.09,27658,8.06,72744.0,-14.55,-19.75,-19.95,0,*65
1518670971.33,27659,8.06,72744.8,-14.57,-19.95,-20.15,0,*6A
1518670972.58,27660,8.0,72746.0,-14.55,-19.91,-20.09,0,*6B
1518670973.84,27661,8.06,72746.8,-14.55,-19.95,-20.09,0,*6E
1518670975.06,27662,8.06,72746.3,-14.57,-19.95,-19.95,0,*60
1518670976.31,27663,8.0,72742.5,-14.57,-19.85,-19.95,0,*60
1518670977.58,27664,8.06,72746.8,-14.55,-19.75,-19.81,0,*6F
1518670978.83,27665,8.0,72740.5,-14.57,-19.71,-19.81,0,*68
1518670980.13,27666,8.06,72744.0,-14.55,-19.65,-19.81,0,*6C
1518670981.36,27667,8.06,72746.8,-14.57,-19.95,-19.95,0,*65
1518670982.61,27668,8.06,72744.0,-14.55,-19.91,-20.05,0,*6F
1518670983.86,27669,8.0,72742.3,-14.55,-19.91,-20.09,0,*62
1518670985.1,27670,8.06,72746.8,-14.57,-19.99,-20.15,0,*6D
1518670986.32,27671,8.0,72740.0,-14.57,-20.09,-20.09,0,*62
1518670987.55,27672,8.0,72744.5,-14.57,-19.99,-20.09,0,*62
1518670988.81,27673,8.06,72746.5,-14.55,-19.81,-19.95,0,*67
1518670990.04,27674,8.0,72746.0,-14.57,-19.95,-19.99,0,*6B
1518670991.31,27675,8.06,72744.8,-14.55,-19.81,-19.95,0,*61
1518670992.55,27676,8.0,72746.0,-14.57,-19.81,-19.95,0,*60
1518670993.82,27677,8.06,72744.8,-14.57,-19.65,-19.81,0,*6E
1518670995.07,27678,8.0,72744.0,-14.57,-19.71,-19.81,0,*64
1518670996.34,27679,8.0,72744.3,-14.55,-19.81,-19.95,0,*6D
1518670997.59,27680,8.06,72744.3,-14.55,-19.91,-20.05,0,*69
1518670998.84,27681,8.06,72744.5,-14.55,-19.91,-20.05,0,*68
1518671000.09,27682,8.06,72750.8,-14.55,-19.91,-20.05,0,*6B
1518671001.32,27683,8.0,72742.0,-14.57,-19.95,-20.09,0,*60
1518671002.54,27684,8.0,72744.8,-14.57,-19.99,-20.09,0,*6B
1518671003.79,27685,8.06,72744.8,-14.57,-19.85,-19.95,0,*68
1518671005.03,27686,8.0,72742.8,-14.57,-19.85,-19.99,0,*67
1518671006.28,27687,8.0,72746.3,-14.57,-19.85,-19.99,0,*66
1518671007.55,27688,8.06,72746.3,-14.55,-19.81,-19.95,0,*63
1518671008.77,27689,8.0,72746.0,-14.57,-19.71,-19.95,0,*6F
1518671010.05,27690,8.0,72744.0,-14.55,-19.75,-19.81,0,*64
1518671011.31,27691,8.06,72746.0,-14.57,-19.81,-19.85,0,*68
1518671012.56,27692,8.06,72744.3,-14.57,-19.71,-19.85,0,*64
1518671013.86,27693,8.0,72742.8,-14.55,-19.65,-19.81,0,*66
1518671015.12,27694,8.0,72744.5,-14.55,-19.81,-19.95,0,*6E
1518671016.35,27695,8.0,72746.8,-14.57,-19.95,-19.99,0,*64
1518671017.57,27696,8.0,72746.8,-14.57,-19.95,-19.99,0,*67
1518671018.83,27697,8.0,72744.0,-14.55,-19.91,-19.95,0,*6C
1518671020.08,27698,8.0,72744.3,-14.55,-19.91,-20.09,0,*6C
1518671021.3,27699,8.06,72744.0,-14.57,-19.95,-20.09,0,*6B
1518671022.55,27700,8.0,72744.5,-14.55,-19.91,-20.05,0,*60
1518671023.78,27701,8.0,72742.3,-14.57,-19.95,-19.99,0,*68
1518671025.03,27702,8.06,72746.5,-14.55,-19.91,-19.91,0,*65
1518671026.28,27703,8.0,72744.8,-14.55,-19.91,-19.95,0,*60
1518671027.53,27704,8.0,72746.0,-14.55,-19.91,-20.05,0,*64
1518671028.78,27705,8.06,72746.8,-14.55,-19.75,-19.91,0,*68
1518671030.05,27706,8.06,72744.8,-14.55,-19.65,-19.75,0,*60
1518671031.3,27707,8.0,72746.3,-14.55,-19.75,-19.91,0,*6A
1518671032.55,27708,8.06,72746.5,-14.55,-19.75,-19.95,0,*61
1518671033.79,27709,8.0,72746.5,-14.57,-19.85,-19.99,0,*61
1518671035.05,27710,8.06,72748.5,-14.55,-19.91,-19.95,0,*62
1518671036.29,27711,8.0,72744.8,-14.55,-19.75,-19.91,0,*6D
1518671037.54,27712,8.06,72746.3,-14.57,-19.81,-19.95,0,*63
1518671038.78,27713,8.0,72746.8,-14.57,-19.99,-20.15,0,*69
1518671040.03,27714,8.06,72748.8,-14.55,-19.95,-20.09,0,*6D
1518671041.26,27715,8.0,72744.5,-14.57,-19.99,-20.09,0,*62
1518671042.49,27716,8.06,72750.3,-14.57,-19.99,-20.09,0,*61
1518671043.71,27717,8.06,72750.8,-14.57,-20.09,-20.25,0,*6D
1518671044.95,27718,8.0,72746.5,-14.57,-20.25,-20.35,0,*6D
1518671046.17,27719,8.06,72750.3,-14.57,-20.29,-20.43,0,*61
1518671047.42,27720,8.0,72744.8,-14.55,-20.09,-20.25,0,*6B
1518671048.65,27721,8.06,72750.8,-14.57,-19.99,-20.25,0,*6B
1518671049.9,27722,8.0,72744.8,-14.57,-19.95,-20.19,0,*6B
1518671051.12,27723,8.06,72748.8,-14.57,-19.99,-20.09,0,*67
1518671052.36,27724,8.0,72746.0,-14.57,-20.09,-20.15,0,*6E
1518671053.59,27725,8.0,72746.0,-14.57,-19.99,-20.09,0,*61
1518671054.81,27726,8.0,72748.0,-14.57,-20.09,-20.09,0,*61
1518671056.04,27727,8.06,72750.0,-14.57,-20.09,-20.15,0,*6D
1518671057.29,27728,8.0,72746.8,-14.55,-19.91,-20.05,0,*6A
1518671058.54,27729,8.06,72748.0,-14.57,-19.85,-19.99,0,*63
1518671059.8,27730,8.0,72748.5,-14.59,-19.81,-19.99,0,*61
1518671061.05,27731,8.06,72748.8,-14.55,-19.91,-20.09,0,*6E
1518671062.29,27732,8.06,72748.8,-14.57,-20.15,-20.25,0,*67
1518671063.56,27733,8.0,72746.8,-14.57,-20.15,-20.35,0,*67
1518671064.83,27734,8.0,72748.5,-14.57,-20.15,-20.35,0,*60
1518671066.05,27735,8.06,72750.0,-14.57,-20.09,-20.25,0,*6D
1518671067.27,27736,8.06,72750.3,-14.57,-20.09,-20.29,0,*62
1518671068.49,27737,8.0,72746.8,-14.57,-20.25,-20.29,0,*6D
1518671069.73,27738,8.0,72750.0,-14.57,-20.15,-20.25,0,*6D
1518671070.98,27739,8.0,72746.0,-14.55,-20.05,-20.09,0,*61
1518671072.22,27740,8.0,72744.5,-14.57,-20.15,-20.29,0,*6E
1518671073.46,27741,8.0,72746.5,-14.57,-19.99,-20.15,0,*6E
1518671074.71,27742,8.0,72746.8,-14.57,-19.99,-20.15,0,*6D
1518671075.96,27743,8.0,72746.0,-14.59,-19.95,-20.09,0,*63
1518671077.2,27744,8.0,72746.8,-14.57,-19.81,-19.99,0,*6C
1518671078.42,27745,8.0,72746.5,-14.57,-19.95,-19.99,0,*68
1518671079.65,27746,8.0,72744.5,-14.57,-19.95,-19.99,0,*6B
1518671080.88,27747,8.06,72750.5,-14.57,-19.99,-20.25,0,*6B
1518671082.12,27748,8.06,72750.8,-14.57,-19.99,-20.15,0,*67
1518671083.35,27749,8.06,72748.8,-14.57,-19.95,-19.99,0,*64
1518671084.57,27750,8.0,72746.3,-14.57,-19.95,-19.99,0,*6C
1518671085.8,27751,8.06,72748.5,-14.57,-19.99,-20.09,0,*62
1518671087.04,27752,8.06,72748.3,-14.57,-19.99,-20.15,0,*6C
1518671088.27,27753,8.0,72746.8,-14.57,-19.95,-20.09,0,*6C
1518671089.53,27754,8.06,72750.5,-14.59,-19.81,-19.99,0,*63
1518671090.77,27755,8.06,72748.0,-14.57,-19.85,-19.99,0,*68
1518671092.03,27756,8.0,72748.0,-14.55,-19.91,-19.95,0,*60
1518671093.28,27757,8.0,72748.3,-14.55,-19.91,-19.95,0,*61
1518671094.51,27758,8.0,72746.5,-14.57,-19.95,-20.09,0,*67
1518671095.75,27759,8.0,72750.3,-14.57,-19.99,-20.15,0,*67
1518671096.99,27760,8.0,72746.0,-14.57,-20.15,-20.29,0,*6C
1518671098.28,27761,8.0,72744.5,-14.59,-20.15,-20.15,0,*6C
1518671099.51,27762,8.06,72748.8,-14.57,-19.99,-20.25,0,*6C
1518671100.75,27763,8.06,72750.0,-14.57,-20.09,-20.15,0,*6D
1518671101.97,27764,8.06,72750.3,-14.57,-20.09,-20.25,0,*69
1518671103.2,27765,8.0,72744.5,-14.57,-20.09,-20.15,0,*6B
1518671104.45,27766,8.06,72746.5,-14.59,-20.09,-20.09,0,*6B
1518671105.69,27767,8.0,72744.5,-14.57,-20.15,-20.29,0,*6B
1518671106.96,27768,8.0,72744.8,-14.57,-20.15,-20.35,0,*69
1518671108.2,27769,8.0,72744.5,-14.59,-20.25,-20.25,0,*64
1518671109.47,27770,8.06,72750.5,-14.59,-20.15,-20.25,0,*6F
1518671110.72,27771,8.0,72746.5,-14.59,-19.95,-20.09,0,*62
1518671112.0,27772,8.0,72748.3,-14.59,-19.71,-19.85,0,*65
1518671113.26,27773,8.06,72750.3,-14.59,-19.81,-19.95,0,*6A
1518671114.51,27774,8.06,72748.5,-14.59,-19.95,-20.09,0,*67
1518671115.78,27775,8.0,72750.0,-14.59,-19.85,-19.95,0,*68
1518671117.03,27776,8.06,72748.3,-14.59,-19.95,-19.99,0,*66
1518671118.28,27777,8.06,72750.3,-14.55,-19.75,-19.95,0,*69
1518671119.55,27778,8.0,72744.5,-14.59,-19.81,-19.95,0,*61
1518671120.81,27779,8.06,72748.0,-14.59,-19.85,-19.99,0,*68
1518671122.06,27780,8.0,72744.8,-14.57,-19.81,-19.95,0,*68
1518671123.3,27781,8.0,72744.5,-14.57,-19.81,-19.95,0,*69
1518671124.55,27782,8.0,72744.3,-14.57,-19.71,-19.81,0,*60
1518671125.82,27783,8.0,72744.3,-14.57,-19.65,-19.85,0,*60
1518671127.08,27784,8.06,72748.3,-14.57,-19.81,-19.85,0,*6D
1518671128.33,27785,8.0,72746.5,-14.57,-19.85,-19.99,0,*65
1518671129.58,27786,8.0,72744.5,-14.55,-19.91,-19.95,0,*6D
1518671130.8,27787,8.06,72744.8,-14.57,-19.99,-19.99,0,*6A
1518671132.03,27788,8.0,72746.3,-14.57,-19.95,-20.05,0,*66
1518671133.27,27789,8.0,72744.5,-14.57,-19.85,-19.99,0,*69
1518671134.5,27790,8.06,72744.8,-14.57,-19.71,-19.95,0,*66
1518671135.74,27791,8.06,72746.8,-14.57,-19.81,-19.99,0,*64
1518671136.97,27792,8.0,72744.3,-14.57,-19.95,-20.09,0,*61
1518671138.19,27793,8.06,72748.0,-14.57,-19.99,-20.09,0,*6C
1518671139.42,27794,8.0,72746.8,-14.57,-19.99,-20.09,0,*6B
1518671140.67,27795,8.0,72746.5,-14.55,-19.95,-20.09,0,*64
1518671141.92,27796,8.06,72746.0,-14.57,-19.99,-20.15,0,*64
1518671143.16,27797,8.06,72750.8,-14.55,-20.05,-20.05,0,*69
1518671144.42,27798,8.06,72746.8,-14.57,-20.15,-20.15,0,*64
1518671145.67,27799,8.06,72750.0,-14.57,-20.25,-20.35,0,*64
1518671146.91,27800,8.0,72744.3,-14.55,-20.25,-20.29,0,*64
1518671148.16,27801,8.06,72746.0,-14.57,-20.15,-20.29,0,*64
1518671149.4,27802,8.06,72744.3,-14.57,-19.99,-20.15,0,*66
1518671150.65,27803,8.0,72744.3,-14.57,-19.99,-20.15,0,*67
1518671151.9,27804,8.06,72746.8,-14.55,-19.95,-20.05,0,*6F
1518671153.12,27805,8.06,72746.8,-14.57,-19.99,-20.09,0,*6C
1518671154.34,27806,8.06,72744.8,-14.57,-20.09,-20.09,0,*6C
1518671155.61,27807,8.0,72744.5,-14.57,-20.15,-20.35,0,*6F
1518671156.88,27808,8.0,72744.5,-14.57,-20.15,-20.35,0,*60
1518671158.14,27809,8.06,72746.0,-14.59,-20.15,-20.29,0,*62
1518671159.36,27810,8.06,72744.8,-14.57,-20.09,-20.09,0,*6B
1518671160.61,27811,8.0,72744.5,-14.59,-19.99,-20.09,0,*67
1518671161.85,27812,8.06,72748.5,-14.59,-20.09,-20.09,0,*67
1518671163.12,27813,8.06,72746.8,-14.59,-19.99,-20.15,0,*68
1518671164.39,27814,8.0,72746.5,-14.59,-19.99,-20.15,0,*6F
1518671165.64,27815,8.0,72746.3,-14.59,-19.99,-20.09,0,*63
1518671166.89,27816,8.0,72746.5,-14.59,-19.99,-20.25,0,*6E
1518671168.11,27817,8.0,72744.0,-14.57,-20.09,-20.25,0,*62
1518671169.36,27818,8.0,72746.5,-14.55,-20.09,-20.25,0,*6F
1518671170.62,27819,8.06,72750.0,-14.57,-20.15,-20.35,0,*60
1518671171.89,27820,8.0,72746.5,-14.59,-20.15,-20.29,0,*69
1518671173.16,27821,8.06,72748.5,-14.59,-20.15,-20.29,0,*68
1518671174.42,27822,8.06,72748.3,-14.59,-20.25,-20.35,0,*65
1518671175.67,27823,8.06,72750.0,-14.59,-20.25,-20.43,0,*65
1518671176.91,27824,8.0,72748.3,-14.59,-20.29,-20.43,0,*6E
1518671178.15,27825,8.06,72748.5,-14.61,-20.35,-20.43,0,*69
1518671179.44,27826,8.0,72748.5,-14.59,-20.15,-20.35,0,*62
1518671180.67,27827,8.0,72748.8,-14.61,-20.25,-20.35,0,*6B
1518671181.88,27828,8.0,72750.0,-14.61,-20.25,-20.43,0,*65
1518671183.13,27829,8.0,72748.3,-14.61,-20.35,-20.35,0,*64
1518671184.4,27830,8.06,72750.3,-14.59,-20.15,-20.25,0,*64
1518671185.62,27831,8.0,72748.3,-14.61,-19.95,-20.09,0,*62
1518671186.87,27832,8.0,72746.3,-14.59,-19.99,-20.09,0,*66
1518671188.11,27833,8.0,72750.0,-14.59,-20.09,-20.29,0,*66
1518671189.31,27834,8.0,72746.8,-14.61,-20.25,-20.29,0,*64
1518671190.58,27835,8.06,72750.5,-14.59,-20.15,-20.29,0,*6D
1518671191.83,27836,8.0,72750.3,-14.61,-20.15,-20.35,0,*68
1518671193.07,27837,8.0,72746.3,-14.59,-20.29,-20.43,0,*6C
1518671194.31,27838,8.06,72748.0,-14.61,-20.25,-20.35,0,*65
1518671195.54,27839,8.0,72748.5,-14.61,-20.15,-20.29,0,*6A
1518671196.77,27840,8.0,72750.0,-14.61,-20.15,-20.43,0,*68
1518671198.02,27841,8.0,72748.3,-14.61,-20.15,-20.35,0,*68
1518671199.23,27842,8.0,72750.5,-14.61,-20.25,-20.29,0,*65
1518671200.49,27843,8.0,72748.8,-14.61,-20.15,-20.35,0,*6A
1518671201.72,27844,8.0,72746.8,-14.61,-20.25,-20.35,0,*6E
1518671202.97,27845,8.0,72748.5,-14.63,-20.19,-20.29,0,*6F
1518671204.2,27846,8.0,72748.3,-14.61,-20.25,-20.35,0,*6C
1518671205.41,27847,8.0,72748.0,-14.61,-19.99,-20.09,0,*6F
1518671206.65,27848,8.06,72750.8,-14.61,-19.99,-20.15,0,*6D
1518671207.86,27849,8.0,72748.5,-14.61,-19.99,-20.09,0,*61
1518671209.07,27850,8.0,72748.8,-14.61,-19.95,-20.09,0,*65
1518671210.31,27851,8.0,72748.5,-14.63,-19.99,-20.05,0,*66
1518671211.58,27852,8.0,72750.8,-14.63,-20.15,-20.15,0,*6A
1518671212.83,27853,8.06,72752.3,-14.61,-20.15,-20.15,0,*69
1518671214.05,27854,8.0,72748.3,-14.61,-19.99,-20.09,0,*6D
1518671215.29,27855,8.0,72748.8,-14.59,-19.99,-20.09,0,*67
1518671216.53,27856,8.0,72748.5,-14.61,-19.99,-20.15,0,*62
1518671217.74,27857,8.06,72748.5,-14.61,-19.95,-19.99,0,*61
1518671218.95,27858,8.06,72754.3,-14.61,-19.95,-19.99,0,*6E
1518671220.17,27859,8.06,72750.8,-14.61,-19.95,-20.09,0,*6C
1518671221.38,27860,8.0,72748.3,-14.61,-19.99,-20.09,0,*6A
1518671222.61,27861,8.06,72750.0,-14.61,-19.99,-20.15,0,*66
1518671223.86,27862,8.06,72748.5,-14.59,-19.99,-20.09,0,*63
1518671225.07,27863,8.0,72748.3,-14.61,-19.99,-20.09,0,*69
1518671226.28,27864,8.06,72748.5,-14.61,-20.09,-20.25,0,*63
1518671227.51,27865,8.06,72748.0,-14.61,-19.99,-20.15,0,*62
1518671228.73,27866,8.0,72748.0,-14.61,-19.95,-20.09,0,*60
1518671229.96,27867,8.0,72748.3,-14.61,-19.85,-19.99,0,*63
1518671231.17,27868,8.0,72748.5,-14.61,-19.95,-19.99,0,*6D
1518671232.38,27869,8.06,72750.5,-14.61,-19.99,-20.09,0,*63
1518671233.64,27870,8.06,72750.5,-14.59,-20.09,-20.15,0,*6E
1518671234.86,27871,8.06,72750.0,-14.61,-19.95,-20.09,0,*66
1518671236.07,27872,8.06,72750.3,-14.61,-19.95,-19.99,0,*66
1518671237.28,27873,8.06,72750.3,-14.61,-19.95,-20.09,0,*64
1518671238.55,27874,8.06,72750.5,-14.59,-19.95,-20.15,0,*65
1518671239.77,27875,8.0,72748.0,-14.61,-19.99,-20.09,0,*6E
1518671240.98,27876,8.0,72744.5,-14.61,-19.99,-20.09,0,*6D
1518671242.23,27877,8.06,72748.8,-14.59,-19.95,-20.09,0,*6B
1518671243.44,27878,8.06,72750.5,-14.61,-19.95,-19.99,0,*6C
1518671244.71,27879,8.0,72748.0,-14.59,-19.81,-19.95,0,*6F
1518671245.97,27880,8.06,72750.3,-14.59,-19.81,-19.95,0,*69
1518671247.2,27881,8.06,72748.8,-14.61,-19.81,-19.95,0,*63
1518671248.41,27882,8.0,72750.0,-14.61,-19.95,-19.99,0,*69
1518671249.63,27883,8.06,72750.5,-14.61,-19.95,-19.95,0,*64
1518671250.9,27884,8.06,72750.8,-14.59,-19.95,-20.15,0,*6A
1518671252.15,27885,8.0,72750.8,-14.59,-19.99,-20.25,0,*64
1518671253.4,27886,8.0,72748.0,-14.59,-19.99,-20.09,0,*69
1518671254.63,27887,8.0,72746.5,-14.61,-19.99,-20.15,0,*6E
1518671255.9,27888,8.0,72748.3,-14.59,-19.71,-19.85,0,*6F
1518671257.14,27889,8.06,72748.0,-14.61,-19.85,-19.95,0,*6F
1518671258.41,27890,8.0,72748.0,-14.59,-19.85,-19.99,0,*60
1518671259.62,27891,8.0,72748.0,-14.61,-19.95,-20.09,0,*68
1518671260.87,27892,8.0,72750.0,-14.59,-20.09,-20.25,0,*61
1518671262.07,27893,8.0,72750.5,-14.61,-20.25,-20.29,0,*69
1518671263.32,27894,8.0,72750.0,-14.59,-20.25,-20.25,0,*69
1518671264.53,27895,8.06,72748.3,-14.61,-19.99,-20.09,0,*60
1518671265.8,27896,8.0,72748.8,-14.59,-19.99,-20.15,0,*65
1518671267.03,27897,8.0,72750.8,-14.61,-19.99,-20.15,0,*6F
1518671268.25,27898,8.0,72750.8,-14.61,-19.99,-20.25,0,*63
1518671269.52,27899,8.0,72746.0,-14.59,-19.99,-20.15,0,*6A
1518671270.79,27900,8.06,72750.3,-14.59,-19.99,-20.15,0,*6B
1518671272.06,27901,8.06,72750.5,-14.59,-19.99,-20.15,0,*6A
1518671273.33,27902,8.0,72750.8,-14.59,-19.99,-20.15,0,*69
1518671274.55,27903,8.0,72750.3,-14.61,-20.09,-20.15,0,*60
1518671275.76,27904,8.06,72748.3,-14.61,-20.09,-20.25,0,*64
1518671276.99,27905,8.0,72748.3,-14.61,-19.99,-20.15,0,*65
1518671278.24,27906,8.06,72748.8,-14.59,-19.95,-19.99,0,*6F
1518671279.49,27907,8.0,72748.0,-14.59,-19.95,-19.99,0,*6E
1518671280.74,27908,8.0,72748.5,-14.59,-19.95,-19.95,0,*6D
1518671281.99,27909,8.06,72750.8,-14.59,-19.95,-19.99,0,*60
1518671283.22,27910,8.0,72750.5,-14.61,-19.95,-20.15,0,*6D
1518671284.43,27911,8.0,72746.0,-14.61,-19.95,-19.99,0,*62
1518671285.7,27912,8.0,72750.5,-14.59,-19.99,-20.15,0,*68
1518671286.91,27913,8.06,72750.8,-14.61,-19.99,-20.09,0,*6F
1518671288.15,27914,8.06,72750.8,-14.61,-20.15,-20.25,0,*68
1518671289.39,27915,8.0,72746.5,-14.59,-20.25,-20.29,0,*6D
1518671290.6,27916,8.06,72750.3,-14.61,-20.25,-20.29,0,*65
1518671291.81,27917,8.0,72748.3,-14.61,-20.25,-20.29,0,*64
1518671293.04,27918,8.06,72752.3,-14.61,-20.25,-20.35,0,*66
1518671294.27,27919,8.0,72750.8,-14.61,-20.15,-20.29,0,*69
1518671295.5,27920,8.06,72752.3,-14.61,-20.15,-20.25,0,*6F
1518671296.74,27921,8.0,72748.8,-14.61,-20.15,-20.25,0,*6E
1518671297.95,27922,8.06,72750.8,-14.61,-19.99,-20.09,0,*6D
1518671299.16,27923,8.0,72750.8,-14.61,-20.09,-20.25,0,*61
1518671300.43,27924,8.06,72748.5,-14.59,-20.15,-20.43,0,*60
1518671301.66,27925,8.06,72750.8,-14.61,-20.35,-20.43,0,*68